Regional Weather Roundup
Issued by NWS

Home | Current Version | Previous Version | Graphics & Text | Print | Product List | Glossary On
Versions: 1 2 3 4 5 6 7 8 9 10 11 12 13 14 15 16 17 18 19 20 21 22 23 24 25 26 27 28 29 30 31 32 33 34 35 36 37 38 39 40 41 42 43 44 45 46 47 48 49 50
000
ASUS43 KMPX 032001
RWRMN
WEATHER ROUNDUP FOR MINNESOTA
NATIONAL WEATHER SERVICE TWIN CITIES/CHANHASSEN MN
300 PM CDT MON AUG 03 2015


NOTE: "FAIR" INDICATES FEW OR NO CLOUDS BELOW 12,000 FEET WITH NO
SIGNIFICANT WEATHER AND/OR OBSTRUCTIONS TO VISIBILITY. N/A MEANS
CURRENT SKY AND/OR WEATHER CONDITIONS ARE NOT AVAILABLE.

MNZ060>063-068>070-032100-
   Twin Cities Metro

CITY           SKY/WX    TMP DP  RH WIND       PRES   REMARKS
TWIN CITIES    MOSUNNY   79  49  34 W14       29.90F
ST PAUL        MOSUNNY   78  48  34 W12       29.89F
CRYSTAL        MOSUNNY   79  48  33 W16       29.89F
BLAINE         MOSUNNY   79  48  34 NW17G24   29.90S
LAKEVILLE      SUNNY     75  50  41 W13G20    29.91F
EDEN PRAIRIE   SUNNY     78  49  35 W10       29.90F
SOUTH ST PAUL  MOSUNNY   78  46  32 W12       29.90S
LAKE ELMO      FAIR      73  52  46 NW10      29.91S
$$
MNZ001>005-007-008-013>017-022>024-027-028-032100-
   Northwest Minnesota

CITY           SKY/WX    TMP DP  RH WIND       PRES   REMARKS
BEMIDJI        CLOUDY    71  52  51 NW18      29.90F
HALLOCK        MOSUNNY   75  46  35 NW14G22   29.91S
ROSEAU         MOSUNNY   70  54  56 NW12      29.90S
WARROAD        CLOUDY    66  54  63 NW14      29.90S
THIEF RVR FALL MOSUNNY   72  48  43 NW16      29.93R
CROOKSTON      MOSUNNY   73  52  46 N13G20    29.93S
FOSSTON        MOSUNNY   72  48  43 NW15      29.93S
DETROIT LAKES  SUNNY     73  46  38 N16       29.95S
MOORHEAD       SUNNY     75  48  38 N12G18    29.94S
PARK RAPIDS    PTSUNNY   75  50  41 NW16G25   29.91F
MAHNOMEN       FAIR      71  52  50 NW13      29.93R
$$
MNZ006-009>011-018-025>026-032100-
   North Central Minnesota

CITY           SKY/WX    TMP DP  RH WIND       PRES   REMARKS
BAUDETTE       CLOUDY    65  52  62 NW17      29.88S
FLAG ISLAND    CLOUDY    63  54  72 NW16      29.87S
INTL FALLS     CLOUDY    64  57  78 NW9       29.85R
WASKISH        CLOUDY    66  54  63 NW14      29.90R
BIG FORK       MOSUNNY   66  54  63 W7        29.88S
LONGVILLE      PTSUNNY   70  52  52 W14G21    29.89F
GRAND RAPIDS   CLOUDY    66  50  55 NW10G21   29.88F
CRANE LAKE     CLOUDY    63  54  72 W6        29.85R
ORR            CLOUDY    66  52  59 NW14G21   29.83S
COOK           MOSUNNY   63  55  77 NW8G18    29.85S
WALKER         CLOUDY    69  51  52 NW12G20   29.90S
$$
MNZ012-019>021-037-032100-
   Northeast Minnesota

CITY           SKY/WX    TMP DP  RH WIND       PRES   REMARKS
DULUTH         PTSUNNY   69  52  54 W13       29.85F
ELY            CLOUDY    61  55  82 NW8       29.83S HAZE
HIBBING        CLOUDY    66  51  58 W12G21    29.86S
EVELETH        MOSUNNY   64  50  59 W13       29.86S
DULUTH HARBOR  CLOUDY    72  55  56 NW13G18   29.85S
TWO HARBORS    PTSUNNY   73  57  56 W7G16     29.82S
SILVER BAY     PTSUNNY   72  52  49 NW7       29.80S
GRAND MARAIS     N/A     73  53  49 NW12G23   29.75S
G MARAIS ARPRT   N/A     64  48  55 W10G20    29.81R
$$
MNZ029>031-032-039>041-046>048-054>057-064-032100-
   West Central Minnesota

CITY           SKY/WX    TMP DP  RH WIND       PRES   REMARKS
FERGUS FALLS   SUNNY     75  48  38 NW9G21    29.93S
WHEATON        SUNNY     75  52  43 W10G16    29.96S
MORRIS         SUNNY     79  54  41 NW16      29.94S
ALEXANDRIA     SUNNY     75  49  39 NW15G21   29.94F
ELBOW LAKE     FAIR      75  50  40 NW12      29.94S
WADENA         SUNNY     73  46  38 NW17      29.92S
GLENWOOD       SUNNY     75  50  41 W14G20    29.94F
APPLETON       SUNNY     79  45  29 NW14G20   29.94S
BENSON         SUNNY     79  50  36 NW13      29.94S
ORTONVILLE     SUNNY     79  48  34 NW9       29.95S
MADISON        SUNNY     79  48  34 W9G17     29.95S
WILLMAR        FAIR      79  52  38 NW12G18   29.95F
$$
MNZ033>034-036-042>043-049>051-058-059-032100-
   Central Minnesota

CITY           SKY/WX    TMP DP  RH WIND       PRES   REMARKS
ST CLOUD       MOSUNNY   77  49  37 NW8       29.90F
SAUK CENTRE    FAIR      75  50  41 NW15G23   29.93S
PAYNESVILLE    MOSUNNY   74  48  40 W14G21    29.93F
AITKIN         CLOUDY    73  52  46 NW7       29.87F
PINE RIVER     CLOUDY    72  52  49 NW13G18   29.93S
BRAINERD       PTSUNNY   76  47  35 NW13G21   29.90S
STAPLES        MOSUNNY   75  45  33 NW14G23   29.91S
LONG PRAIRIE   FAIR      73  48  40 W14       29.92F
LITTLE FALLS     N/A     77  41  27 W17       29.90F
LITCHFIELD     SUNNY     77  48  36 W12       29.93F
BUFFALO        MOSUNNY   77  48  35 W12G17    29.92F
$$
MNZ037-044-045-052-053-032100-
   East Central Minnesota

CITY           SKY/WX    TMP DP  RH WIND       PRES   REMARKS
PRINCETON      MOSUNNY   79  50  36 W9G18     29.90F
MORA           MOSUNNY   72  48  43 NW8       29.90F
CAMBRIDGE      MOSUNNY   79  55  44 W12       29.88S
RUSH CITY      PTSUNNY   76  51  41 W8G17     29.89S
MOOSE LAKE     CLOUDY    70  52  52 NW10G17   29.86F
HINCKLEY       CLOUDY    72  52  49 NW10G17   29.88F
CLOQUET        CLOUDY    70  50  49 W18       29.87S
MCGREGOR       CLOUDY    70  50  49 NW12G18   29.89S
$$
MNZ071>073-080-081-089-090-097-098-032100-
   Southwest Minnesota

CITY           SKY/WX    TMP DP  RH WIND       PRES   REMARKS
MONTEVIDEO     SUNNY     81  54  39 NW12G17   29.96F
GRANITE FALLS  SUNNY     77  54  44 W10       29.97S
CANBY          SUNNY     79  51  37 NW13G18   29.97S
MARSHALL       MOSUNNY   79  54  41 NW10      29.97S
REDWOOD FALLS  SUNNY     80  50  34 NW13G18   29.94S
OLIVIA         SUNNY     73  50  43 W15G21    29.94S
PIPESTONE      MOSUNNY   77  55  47 W9        29.99F
WINDOM         MOSUNNY   79  54  41 NW9       29.97F
WORTHINGTON    PTSUNNY   77  54  44 W10G18    29.98F
JACKSON        MOSUNNY   79  54  41 NW9       29.98S
TRACY          MOSUNNY   79  57  47 NW6       29.97S
SLAYTON        SUNNY     78  53  41 W5        29.99F
$$
MNZ065>067-074>077-082>085-091>093-032100-
   South Central Minnesota

CITY           SKY/WX    TMP DP  RH WIND       PRES   REMARKS
MANKATO        SUNNY     77  48  36 NW15G22   29.93F
NEW ULM        SUNNY     79  46  31 NW15      29.94S
FAIRMONT       SUNNY     79  52  38 NW16G22   29.95F
GLENCOE        MOSUNNY   77  56  48 W7G18     29.92S
FARIBAULT      SUNNY     75  52  43 NW8G18    29.93S
OWATONNA       SUNNY     77  48  36 W14       29.93F
WASECA         SUNNY     77  54  44 W12G18    29.95S
ALBERT LEA     MOSUNNY   77  52  41 W10       29.94F
$$
MNZ078>079-086>088-094>096-032100-
   Southeast Minnesota

CITY           SKY/WX    TMP DP  RH WIND       PRES   REMARKS
ROCHESTER      SUNNY     74  54  49 NW12G21   29.93F
RED WING       SUNNY     79  45  29 NW10G22   29.89S
STANTON        SUNNY     76  50  40 NW9G16    29.90F
DODGE CENTER   SUNNY     75  52  43 W14G21    29.93F
WINONA         MOSUNNY   77  48  36 NW10      29.89F
AUSTIN         SUNNY     77  50  38 NW13G18   29.93F
PRESTON        SUNNY     74  52  46 NW13G21   29.93F
$$
ABBREVIATIONS USED IN REMARKS
   TC - TEMPERATURES IN CELSIUS
  WCI - WIND CHILL INDEX
   HX - HEAT INDEX
  VSB - VISIBILITY
$$


USA.gov is the U.S. government's official web portal to all federal, state and local government web resources and services.